This demonstration page uses our WeatherBlox Daily Observations layout. Learn more.

Left ArrowRight Arrow

Hourly Observations for August 30, 2019

Temp ( °F °C ) Dew Point ( °F °C ) Humidity (%) Winds ( mph kmh ) Pressure ( in mb ) Visibility ( mi km ) Precip ( " mm )
12:15 am 00:15 Clear 70 20.9 64 17.9 83 83 SW 8 13 29.97 1015 10 16 0.00 0.00
12:35 am 00:35 Partly Cloudy 69 20.5 64 18 86 86 SW 9 15 29.97 1015 10 16 0.00 0.00
12:55 am 00:55 Mostly Cloudy 69 20.5 64 18 86 86 SW 9 15 29.97 1015 10 16 0.00 0.00
1:15 am 01:15 Mostly Cloudy 69 20.5 65 18.1 86 86 SW 10 17 29.98 1015 10 16 0.00 0.00
1:35 am 01:35 Mostly Cloudy 69 20.6 64 18 85 85 SW 8 13 29.99 1016 10 16 0.00 0.00
1:55 am 01:55 Mostly Cloudy 69 20.6 64 18 85 85 SW 10 17 29.99 1016 10 16 0.00 0.00
2:15 am 02:15 Mostly Cloudy 69 20.5 65 18.1 86 86 SW 9 15 29.98 1015 10 16 0.00 0.00
2:35 am 02:35 Partly Cloudy 68 20.1 65 18.1 88 88 SW 9 15 29.99 1015 10 16 0.00 0.00
2:55 am 02:55 Partly Cloudy 67 19.6 65 18.3 92 92 SW 8 13 29.99 1015 10 16 0.00 0.00
3:15 am 03:15 Partly Cloudy 67 19.3 65 18.5 95 95 SW 8 13 29.98 1015 10 16 0.00 0.00
3:35 am 03:35 Clear 66 19 65 18.5 97 97 SW 7 11 29.98 1015 10 16 0.00 0.00
3:55 am 03:55 Partly Cloudy 66 19 65 18.5 97 97 SW 7 11 29.99 1016 10 16 0.00 0.00
4:15 am 04:15 Partly Cloudy 66 18.7 65 18.5 99 99 SW 9 15 29.98 1015 10 16 0.00 0.00
4:35 am 04:35 Clear 65 18.3 65 18.3 100 100 SW 6 9 29.98 1015 10 16 0.00 0.00
4:55 am 04:55 Mostly Cloudy 66 19 66 18.7 98 98 NW 3 6 30.00 1016 10 16 0.00 0.00
5:15 am 05:15 Mostly Cloudy 65 18.2 65 18.2 100 100 W 5 7 30.01 1016 10 16 0.00 0.00
5:35 am 05:35 Mostly Cloudy 65 18.5 65 18.5 100 100 WSW 6 9 30.01 1016 10 16 0.00 0.00
5:55 am 05:55 Partly Cloudy 64 17.9 64 17.9 100 100 WSW 5 7 30.01 1016 10 16 0.00 0.00
6:15 am 06:15 Clear 63 17.4 63 17.4 100 100 WSW 5 7 30.03 1017 10 16 0.00 0.00
6:35 am 06:35 Clear 64 17.6 64 17.6 100 100 W 3 6 30.02 1017 10 16 0.00 0.00
6:55 am 06:55 Clear 63 17.3 63 17.3 100 100 WSW 5 7 30.04 1017 10 16 0.00 0.00
7:15 am 07:15 Sunny 63 17 63 17 100 100 WSW 5 7 30.05 1017 10 16 0.00 0.00
7:30 am 07:30 Sunny 63 17 63 17 100 100 W 6 9 30.05 1017 10 16 0.00 0.00
7:55 am 07:55 Sunny 64 17.5 64 17.5 100 100 W 3 6 30.04 1017 10 16 0.00 0.00
8:15 am 08:15 Sunny 64 17.6 64 17.6 100 100 Calm 30.05 1018 10 16 0.00 0.00
8:35 am 08:35 Sunny 66 18.7 66 18.7 100 100 W 3 6 30.06 1018 10 16 0.00 0.00
8:55 am 08:55 Sunny 67 19.7 67 19.7 100 100 W 3 6 30.06 1018 10 16 0.00 0.00
9:15 am 09:15 Sunny 68 20 68 20 100 100 WNW 5 7 30.07 1018 10 16 0.00 0.00
9:35 am 09:35 Sunny 69 20.4 69 20.3 99 99 NW 5 7 30.06 1018 10 16 0.00 0.00
9:55 am 09:55 Sunny 69 20.6 68 20 96 96 NNW 5 7 30.06 1018 10 16 0.00 0.00
10:15 am 10:15 Sunny 69 20.5 68 19.8 96 96 NNW 3 6 30.07 1018 10 16 0.00 0.00
10:35 am 10:35 Mostly Cloudy 69 20.8 68 19.9 95 95 NW 3 6 30.07 1018 10 16 0.00 0.00
10:55 am 10:55 Cloudy 70 21.1 67 19.6 91 91 Calm 30.08 1019 10 16 0.00 0.00
11:15 am 11:15 Cloudy 70 21.2 67 19.2 88 88 Calm 30.08 1019 10 16 0.00 0.00
11:35 am 11:35 Mostly Cloudy 71 21.5 67 19.5 88 88 Calm 30.08 1019 10 16 0.00 0.00
11:55 am 11:55 Mostly Cloudy 72 22.1 68 20 88 88 N 5 7 30.08 1019 10 16 0.00 0.00
12:15 pm 12:15 Cloudy 72 22.4 68 19.9 86 86 Calm 30.08 1019 10 16 0.00 0.00
12:35 pm 12:35 Cloudy 72 22.3 67 19.6 85 85 Calm 30.08 1019 10 16 0.00 0.00
12:55 pm 12:55 Mostly Cloudy 73 23 68 20 83 83 N 5 7 30.08 1018 10 16 0.00 0.00
1:15 pm 13:15 Partly Cloudy 74 23.2 66 18.8 76 76 Calm 30.08 1018 10 16 0.00 0.00
1:35 pm 13:35 Mostly Cloudy 75 23.9 67 19.4 76 76 NNE 5 7 30.07 1018 10 16 0.00 0.00
1:55 pm 13:55 Partly Cloudy 75 23.8 65 18.4 72 72 Calm 30.07 1018 10 16 0.00 0.00
2:15 pm 14:15 Partly Cloudy 75 23.7 64 17.6 69 69 Calm 30.07 1018 10 16 0.00 0.00
2:35 pm 14:35 Sunny 75 23.8 65 18.3 71 71 N 3 6 30.08 1019 10 16 0.00 0.00
2:55 pm 14:55 Partly Cloudy 75 24 65 18.3 71 71 NNW 7 11 30.08 1019 10 16 0.00 0.00
3:15 pm 15:15 Partly Cloudy 74 23.4 65 18.2 73 73 NW 6 9 30.09 1019 10 16 0.00 0.00
3:35 pm 15:35 Partly Cloudy 73 23 65 18.4 75 75 NNW 7 11 30.08 1018 10 16 0.00 0.00
3:55 pm 15:55 Sunny 74 23.5 65 18.3 73 73 NNW 8 13 30.07 1018 10 16 0.00 0.00
4:15 pm 16:15 Sunny 75 23.9 66 18.9 74 74 NNW 7 11 30.07 1018 10 16 0.00 0.00
4:35 pm 16:35 Sunny 75 23.8 65 18.2 71 71 N 7 11 30.07 1018 10 16 0.00 0.00
4:55 pm 16:55 Sunny 74 23.1 64 17.6 71 71 NNW 8 13 30.09 1019 10 16 0.00 0.00
5:15 pm 17:15 Sunny 73 23 65 18.3 75 75 N 7 11 30.08 1018 10 16 0.00 0.00
5:35 pm 17:35 Sunny 74 23.2 64 17.7 71 71 N 7 11 30.08 1018 10 16 0.00 0.00
5:55 pm 17:55 Sunny 73 22.6 65 18.5 78 78 N 5 7 30.08 1019 10 16 0.00 0.00
6:15 pm 18:15 Sunny 72 22.1 64 17.7 76 76 N 7 11 30.08 1019 10 16 0.00 0.00
6:35 pm 18:35 Sunny 71 21.4 63 17.4 78 78 N 7 11 30.08 1019 10 16 0.00 0.00
6:55 pm 18:55 Sunny 70 21.2 65 18.6 85 85 N 3 6 30.09 1019 10 16 0.00 0.00
7:15 pm 19:15 Sunny 70 20.9 66 19 89 89 NNE 7 11 30.09 1019 10 16 0.00 0.00
7:35 pm 19:35 Sunny 69 20.3 67 19.6 96 96 NNW 3 6 30.12 1020 10 16 0.00 0.00
7:55 pm 19:55 Sunny 68 19.8 68 19.8 100 100 N 3 6 30.12 1020 10 16 0.00 0.00
8:15 pm 20:15 Sunny 67 19.2 67 19.2 100 100 N 5 7 30.12 1020 10 16 0.00 0.00
8:35 pm 20:35 Clear 65 18.6 65 18.6 100 100 N 5 7 30.12 1020 10 16 0.00 0.00
8:55 pm 20:55 Clear 64 17.9 64 17.9 100 100 NNE 3 6 30.13 1020 10 16 0.00 0.00
9:15 pm 21:15 Clear 64 17.5 64 17.5 100 100 NNE 5 7 30.14 1021 10 16 0.00 0.00
9:35 pm 21:35 Clear 64 17.5 64 17.5 100 100 NNE 5 7 30.14 1021 10 16 0.00 0.00
9:55 pm 21:55 Clear 64 18 64 18 100 100 NE 3 6 30.14 1021 10 16 0.00 0.00
10:15 pm 22:15 Clear 64 17.6 64 17.6 100 100 NNE 5 7 30.16 1021 10 16 0.00 0.00
10:35 pm 22:35 Clear 64 17.5 64 17.5 100 100 N 6 9 30.17 1022 10 16 0.00 0.00
10:55 pm 22:55 Clear 64 17.5 64 17.5 100 100 NNE 6 9 30.17 1022 10 16 0.00 0.00
11:15 pm 23:15 Clear 63 17.4 63 17.2 99 99 N 7 11 30.20 1023 10 16 0.00 0.00
11:35 pm 23:35 Clear 63 17.1 62 16.6 97 97 NNE 8 13 30.20 1023 10 16 0.00 0.00
11:55 pm 23:55 Clear 62 16.9 62 16.6 98 98 NNE 7 11 30.20 1023 10 16 0.00 0.00

Powered by AerisWeather